Location: Beaurecueil
(43.5122°N, 5.5450°E)
Time: 20:32:56
(UTC+00:00)

Cosmos 1844 - Pass Details

Date: 18 September 2020
Orbit: 824 x 866 km, 70.9° (Epoch: 27 October)

Event Time Altitude Azimuth Distance (km) Brightness Sun altitude
Rises 19:24:50 0° 187° (S) 3,414 6.7 -19.0°
Reaches altitude 10° 19:27:21 10° 182° (S) 2,476 5.9 -19.5°
Maximum altitude 19:32:48 49° 108° (ESE) 1,080 3.8 -20.4°
Drops below altitude 10° 19:38:13 10° 35° (NE) 2,465 6.0 -21.3°
Sets 19:40:43 0° 30° (NNE) 3,397 6.8 -21.7°
